www.pogodaiklimat.ru
ПОГОДА в Сукхотаи
Время
(UTC), дата
06 9.10
09 9.10
12 9.10
15 9.10
18 9.10
21 9.10
00 10.10
03 10.10
06 10.10
09 10.10
12 10.10
15 10.10
18 10.10
21 10.10
00 11.10
03 11.10
06 11.10
09 11.10
12 11.10
15 11.10
18 11.10
21 11.10
00 12.10
03 12.10
06 12.10
09 12.10
12 12.10
15 12.10
18 12.10
21 12.10
00 13.10
03 13.10
06 13.10
09 13.10
12 13.10
15 13.10
18 13.10
21 13.10
00 14.10
03 14.10
06 14.10
09 14.10
12 14.10
15 14.10
18 14.10
21 14.10
00 15.10
03 15.10
06 15.10
09 15.10
12 15.10
15 15.10
18 15.10
21 15.10
00 16.10
03 16.10
Ветер
(напр.,м/с)
Видим. Явления Облачность Т
(С)
Тd
(С)
f
(%)
Тe
(С)
Тes
(С)
Комфортность P
(гПа)
Po
(гПа)
Тmin
(С)
Tmax
(С)
R
(мм)
R24
(мм)
S
(см)
З 2 8000 м дымка 3/3 600 м
[Cu med, cong Ci fib]
+33.2 +25.6 64 +48 +60 опасность
перегрева
1010.2 1004.5
СВ 2 8000 м мгла 3/3 600 м
[Cu med, cong]
+33.4 +24.3 59 +46 +50 опасность
перегрева
1007.2 1001.6
штиль 0 8000 м дымка 5/3 600 м
[Cu med, cong Ac lent Cs]
+28.4 +25.7 85 +42 +42 опасность
перегрева
1009.0 1003.2 +35.0
ЮЗ 2 8000 м дымка 5/1 600 м
[Sc Ac lent Cs]
+27.3 +25.7 91 +40 +40 очень
душно
1011.6 1005.8
штиль 0 8000 м дымка 8/3 600 м
[Sc Ac trans Cs]
+26.0 +25.8 99 +38 +38 очень
душно
1011.4 1005.5
В 3 6000 м дымка 3/1 600 м
[Cu hum Cs]
+25.8 +25.5 98 +38 +38 очень
душно
1010.7 1004.9
штиль 0 4000 м дымка 4/0
[Cs]
+25.7 +25.4 98 +37 +38 очень
душно
1011.6 1005.7 +24.5
В 2 8000 м дымка 8/4 600 м
[Cu Sc Ac trans Cs]
+30.7 +27.0 81 +48 +53 опасность
перегрева
1012.6 1006.9
штиль 0 10 км 8/4 600 м
[Cu Sc Ac lent Cs]
+33.3 +26.7 68 +50 +60 опасность
перегрева
1010.0 1004.4
ЮВ 3 10 км 4/4 300 м
[Cb cap Cs]
+34.0 +25.9 63 +50 +52 опасность
перегрева
1007.7 1002.0
ЮВ 2 10 км 4/3 600 м
[Cu Sc Cs]
+30.5 +26.3 78 +46 +46 опасность
перегрева
1008.8 1003.0 +35.0
Ю 2 10 км 4/3 600 м
[Sc Ci sp]
+28.7 +26.3 87 +44 +44 опасность
перегрева
1011.0 1005.2
З 5 10 км гроза без осадков 10/4 300 м
[Cb cap Ac und Cs]
+26.8 +24.2 86 +37 +37 очень
душно
1011.8 1006.0
штиль 0 10 км {гроза} 6/1 600 м
[Sc Cs]
+25.2 +24.5 96 +35 +35 очень
душно
1010.9 1005.0
СВ 3 10 км {гроза} 8/3 600 м
[Sc Ac trans Cs]
+24.8 +24.4 98 +35 +35 очень
душно
1011.5 1005.6 +24.0
З 2 10 км 8/3 600 м
[Cu hum Ac lent Cs]
+29.7 +25.9 80 +44 +50 опасность
перегрева
1012.1 1006.3
З 5 10 км 8/4 600 м
[Cu Sc Ac lent Cs]
+31.8 +26.1 72 +48 +51 опасность
перегрева
1009.7 1003.9
З 2 10 км 8/4 600 м
[Cu Sc Ac lent Cs]
+33.8 +25.4 62 +48 +51 опасность
перегрева
1007.2 1001.6
В 2 10 км 8/3 600 м
[Cu med, cong Ac lent Cs]
+30.2 +27.1 84 +48 +48 опасность
перегрева
1007.5 1001.8 +34.5
Ю 2 10 км 5/3 600 м
[Sc Cs]
+28.5 +27.5 94 +46 +46 опасность
перегрева
1009.8 1004.0
штиль 0 10 км 3/0
[Ci ing]
+27.4 +26.8 97 +43 +43 опасность
перегрева
1009.6 1003.8
штиль 0 8000 м дымка ясно +26.4 +26.3 99 +40 +40 очень
душно
1008.8 1003.0
штиль 0 5000 м дымка 3/1 600 м
[Cu hum Cs]
+26.0 +25.4 97 +38 +38 очень
душно
1009.6 1003.8 +24.5
штиль 0 8000 м дымка 3/1 600 м
[Cu hum Cs]
+32.0 +27.5 77 +51 +64 опасность
перегрева
1011.0 1005.3
штиль 0 8000 м мгла 4/3 600 м
[Cu hum Cs]
+35.0 +26.9 63 +53 +69 опасность
перегрева
1008.5 1002.8
штиль 0 10 км 8/3 600 м
[Cu med, cong Ac trans Cs]
+35.4 +26.7 61 +53 +56 опасность
перегрева
1006.0 1000.4
штиль 0 10 км 5/1 600 м
[Cu hum Ac trans Cs]
+31.9 +27.4 77 +51 +51 опасность
перегрева
1007.6 1001.9 +36.3
штиль 0 10 км 3/1 600 м
[Cu hum Cs]
+29.0 +26.5 86 +44 +44 опасность
перегрева
1009.2 1003.5
ЮВ 2 10 км 5/3 600 м
[Sc Ac trans Cs]
+27.2 +25.5 90 +40 +40 очень
душно
1009.3 1003.5
штиль 0 8000 м дымка 5/3 600 м
[Sc Ac trans Cs]
+26.3 +25.1 93 +38 +38 очень
душно
1008.6 1002.8
штиль 0 8000 м дымка 9/3 600 м
[Cu Sc Ac trans Cs]
+26.9 +25.6 93 +40 +40 очень
душно
1010.2 1004.4 +25.5
Ю 2 8000 м дымка 8/3 600 м
[Cu med, cong Ac trans Cs]
+31.1 +26.8 78 +48 +54 опасность
перегрева
1011.6 1005.9
ЮЗ 6 8000 м дымка {гроза} 8/3 600 м
[Cb cap Ac trans Cs]
+29.0 +26.5 86 +44 +47 опасность
перегрева
1010.0 1004.2
СЗ 3 8000 м дымка 8/3 600 м
[Cb calv Ac trans Cs]
+31.0 +27.4 81 +49 +51 опасность
перегрева
1007.2 1001.5
СВ 5 8000 м дымка 8/3 600 м
[Sc Ac trans Cs]
+28.0 +26.6 92 +43 +43 опасность
перегрева
1009.4 1003.6 +31.8
штиль 0 8000 м дымка 6/3 600 м
[Cu med, cong Ac trans Cs]
+26.9 +25.6 93 +40 +40 очень
душно
1011.3 1005.5
штиль 0 8000 м дымка 8/3 600 м
[Cu hum Ac trans Cs]
+26.5 +25.8 96 +39 +39 очень
душно
1011.2 1005.4
штиль 0 8000 м дымка 6/3 600 м
[Cu med, cong Ac trans Cs]
+26.2 +25.6 97 +39 +39 очень
душно
1010.9 1005.0
штиль 0 6000 м дымка 3/3 600 м
[Sc Ci fib]
+26.0 +25.7 98 +38 +38 очень
душно
1013.5 1007.7 +24.8
СВ 3 8000 м дымка 3/3 600 м
[Cu med, cong]
+32.8 +25.8 67 +48 +55 опасность
перегрева
1014.6 1008.9
Ю 2 8000 м мгла 3/3 600 м
[Cu med, cong]
+34.0 +23.2 53 +44 +56 опасность
перегрева
1013.1 1007.5
СВ 2 8000 м мгла 5/3 600 м
[Cu med, cong Ac trans Ci fib]
+34.7 +24.0 54 +46 +50 опасность
перегрева
1009.5 1003.9
штиль 0 8000 м дымка 3/1 600 м
[Cu hum Cs]
+30.6 +24.8 71 +43 +43 опасность
перегрева
1010.4 1004.7 +35.6
штиль 0 8000 м дымка 3/1 600 м
[Cu hum Ci fib]
+28.4 +25.7 85 +42 +42 опасность
перегрева
1013.2 1007.4
штиль 0 7000 м дымка 3/0
[Cs]
+26.0 +24.6 92 +37 +37 очень
душно
1012.8 1006.9
СВ 2 7000 м дымка 1/0
[Ci fib]
+25.5 +24.8 96 +36 +36 очень
душно
1012.1 1006.3
СВ 2 6000 м дымка 3/3 600 м
[Sc]
+25.4 +24.8 96 +36 +36 очень
душно
1013.3 1007.5 +24.0
В 2 8000 м дымка 3/0
[Ci fib]
+32.0 +26.7 74 +49 +60 опасность
перегрева
1014.4 1008.7
СВ 2 8000 м мгла 6/3 600 м
[Cu med, cong Ac trans Ci fib]
+34.4 +24.6 57 +47 +57 опасность
перегрева
1012.0 1006.3
СВ 2 8000 м мгла 6/3 600 м
[Cu med, cong Ac trans Ci fib]
+35.0 +24.4 54 +47 +50 опасность
перегрева
1010.4 1004.8
СЗ 3 8000 м дымка 6/3 600 м
[Cu med, cong Ac trans Ci sp]
+31.0 +26.0 75 +46 +46 опасность
перегрева
1010.6 1004.8 +35.4
штиль 0 8000 м дымка 3/1 600 м
[Cu hum Ci fib]
+27.8 +24.9 84 +40 +40 очень
душно
1012.9 1007.1
СЗ 2 10 км 10/4 600 м
[Sc Ac As Cs]
+26.4 +24.7 90 +37 +37 очень
душно
1013.5 1007.7
С 2 10 км 10/4 600 м
[Sc Ac As Cs]
+26.3 +25.0 93 +38 +38 очень
душно
1013.0 1007.1
С 3 10 км 8/3 600 м
[Sc Ac und Cs]
+26.0 +24.8 93 +37 +37 очень
душно
1013.8 1007.9 +25.0
штиль 0 10 км 8/3 600 м
[Cu hum Ac trans Cs]
+31.2 +23.7 64 +42 +49 опасность
перегрева
1014.4 1008.7
Местоположение метеостанции Сукхотаи (Таиланд): широта 17.10 долгота 99.80 высота над уровнем моря 50 м.
В архиве по умолчанию представлена погода в Сукхотаи за последнюю неделю. Архивные данные за месяц целиком и за предыдущие месяцы, начиная с января 2011 года, Вы можете получить, выбрав интересующий диапазон дат из раскрывающегося списка и нажав кнопку "Найти!".
*Определитесь, кто Вы:
Внимание! Время в таблицах - всемирное. Для получения местного времени необходимо прибавить поправку, которая равна 7 ч.
Смотрите также архив погоды в соседних городах и на ближайших метеорологических станциях:
Партнеры нашего сайта:      
Пояснения к столбцам:
  • Ветер - указаны скорость ветра в м/с - средняя за 10 мин, порывы в срок и между сроками (в фигурных скобках) и направление, откуда дует ветер: С - северный,
  • СВ - северо-восточный, В - восточный, ЮВ - юго-восточный, Ю - южный, ЮЗ - юго-западный, З - западный, СЗ - северо-западный.
  • Видимость - горизонтальная дальность видимости в метрах или километрах. При видимости от 1 до 10 км при отсутствии осадков обычно наблюдается дымка, при ухудшении видимости до 1 км и менее - туман. В сухую погоду видимость может ухудшаться дымом, пылью или мглою.
  • Явления - указаны атмосферные явления, наблюдавшиеся в срок или в последний час перед сроком; фигурными скобками обозначены явления, наблюдавшиеся между сроками (за 1-3 часа до срока); квадратными скобками обозначены град или гололедные отложения с указанием их диаметра в мм.
  • Облачность - указаны через наклонную черту общая и нижняя облачность в баллах и высота нижней границы облаков в метрах; квадратными скобками обозначены формы облаков: Ci - перистые, Cs - перисто-слоистые, Cc - перисто-кучевые, Ac - высококучевые, As - высокослоистые, Sc - слоисто-кучевые, Ns - слоисто-дождевые, Cu - кучевые, Cb - кучево-дождевые. Подробнее классификацию облаков см. в Атласе облаков (PDF).
  • T - Температура воздуха - температура, измеренная на высоте 2 м над землей.
  • Td - Температура точки росы - температура, при понижении до которой содержащийся в воздухе водяной пар достигнет насыщения.
  • f - Относительная влажность воздуха - влажноcть воздуха, измеренная на высоте 2 м над землей.
  • Te - Эффективная температура - температура, которую ощущает одетый по сезону человек в тени. Характеристика душности погоды. При расчете учитывается влияние влажности воздуха и скорости ветра на теплоощущения человека.
  • Tes - Эффективная температура на солнце - температура, которую ощущает человек, с поправкой на солнечный нагрев. Характеристика знойности погоды. Зависит от высоты солнца над горизонтом, облачности и скорости ветра. Ночью, в пасмурную погоду, а также при ветре 12 м/с и более поправка равна нулю.
  • P - Атмосферное давление - приведенное к уровню моря атмосферное давление.
  • Po - Атмосферное давление - измеренное на уровне метеостанции атмосферное давление.
  • Tmin - Минимальная температура - минимум температуры воздуха на высоте 2 м над землей.
  • Tmax - Максимальная температура - максимум температуры воздуха на высоте 2 м над землей.
  • R - Количество осадков - Количество выпавших осадков за период времени, мм. При наведении курсора мыши на число - период времени, за который выпало указанное количество осадков.
  • R24 - Количество осадков - Количество выпавших осадков за 24 часа, мм.
  • S - Снежный покров - Высота снежного покрова, см. При наведении курсора мыши на число - состояние снежного покрова и степень покрытия местности в баллах.